Location: Julian California
(33.0790°N, 116.6010°W)
Time: 07:00:32
(UTC-07:00)

Tiangong 2 - Pass Details

Date: 12 July 2018
Orbit: 386 x 394 km, 42.8° (Epoch: 22 July)

Event Time Altitude Azimuth Distance (km) Brightness Sun altitude
Rises 22:56:06 0° 289° (WNW) 2,257 5.7 -28.5°
Reaches altitude 10° 22:58:47 10° 313° (NW) 1,403 4.8 -28.8°
Enters shadow 22:59:56 14° 334° (NNW) 1,183 4.4 -28.9°
